Overview Statistics Trail Chart Weather Telemetry Raw packets
 

This is the latest recevied weather packets stored in our database for station/object KC0RKM-13. If no packets are shown the sender has not sent any weather packets the latest 10 day(s).

<< 36 37 38 39 40 41 42 >>
Time Temp. Humidity Pressure Rain* Wind** Luminosity Snow
1787995803 21.11° C 64% 1017.1 hPa 0 mm - - -
1787995203 21.11° C 65% 1017.2 hPa 0 mm - - -
1787994603 21.11° C 65% 1017.4 hPa 0 mm - - -
1787994004 21.11° C 65% 1017.4 hPa 0 mm - - -
1787993403 21.11° C 65% 1017.5 hPa 0 mm - - -
1787992804 21.11° C 65% 1017.3 hPa 0 mm - - -
1787992204 21.67° C 65% 1017.3 hPa 0 mm - - -
1787991604 21.67° C 65% 1017.4 hPa 0 mm - - -
1787991003 21.11° C 66% 1017.5 hPa 0 mm - - -
1787990403 21.11° C 67% 1017.4 hPa 0 mm - - -
1787989803 21.11° C 69% 1017.4 hPa 0 mm - - -
1787989204 21.11° C 70% 1017.6 hPa 0 mm - - -
1787988604 21.11° C 67% 1017.7 hPa 0 mm - - -
1787988004 21.67° C 65% 1017.9 hPa 0 mm - - -
1787987403 21.67° C 65% 1017.8 hPa 0 mm - - -
1787986803 22.22° C 64% 1017.8 hPa 0 mm - - -
1787986203 22.22° C 63% 1017.8 hPa 0 mm - - -
1787985604 22.22° C 63% 1017.6 hPa 0 mm - - -
1787985004 22.78° C 63% 1017.4 hPa 0 mm - - -
1787984404 22.22° C 63% 1017.5 hPa 0 mm - - -
1787983804 22.22° C 63% 1017.8 hPa 0 mm - - -
1787983203 22.78° C 64% 1017.5 hPa 0 mm - - -
1787982604 22.78° C 63% 1017.8 hPa 0 mm - - -
1787982003 22.78° C 62% 1017.7 hPa 0 mm - - -
1787981403 22.78° C 63% 1017.7 hPa 0 mm - - -

* Rain latest hour (hover to see other rain measurements)
** Current wind speed in m/s (hover to see current wind gust speed)